Home   Weather   Demmin   Past weeks

Flag for Germany Past Weather in Demmin, Mecklenburg-Western Pomerania, Germany — Yesterday and Last 2 Weeks

Now
48 °F

Passing clouds.


Feels Like: 43 °F
Forecast: 33 / 55 °F
Wind: 12 mph from Northwest

Location: Laage

Current Time: Apr 27, 2017 at 5:16:46 pm

Latest Report: Apr 27, 2017 at 4:20 pm


Visibility: N/A

Pressure: 29.92 "Hg

Humidity: 50%

Dew Point: 30 °F

Location of DemminLocation

Past Weather in Demmin — Graph

°F

Demmin Temperature Yesterday

Maximum temperature yesterday: 50 °F (at 3:20 pm)
Minimum temperature yesterday: 32 °F (at 3:20 am)
Average temperature yesterday: 40 °F

High & Low Weather Summary for the Past Weeks

 TemperatureHumidityPressure
High57 °F (Apr 21, 3:20 pm)100% (Apr 16, 6:13 am)30.60 "Hg (Apr 16, 6:13 am)
Low27 °F (Apr 20, 3:20 am)42% (Apr 19, 2:20 pm)29.56 "Hg (Apr 25, 7:00 am)
Average42 °F77%29.97 "Hg
* Reported Apr 12 3:20 pm — Apr 27 3:20 pm, Demmin, Weather by CustomWeather, © 2017

Note: Actual official high and low records may vary slightly from our data, if they occured in-between our weather recording intervals... More about our weather records

Advertising

Demmin Weather History for the Previous 24 Hours

Scroll right to see more
 ConditionsComfort  
Time TempWeatherWind HumidityBarometerVisibility
3:20 pm
Thu, Apr 27
48 °FScattered showers. Partly sunny.17 mph43%29.92 "HgN/A
2:20 pm46 °FScattered clouds.8 mph57%29.92 "HgN/A
1:20 pm48 °FScattered showers. Scattered clouds.10 mph46%29.92 "HgN/A
12:20 pm48 °FScattered clouds.10 mph50%29.92 "HgN/A
11:20 am46 °FScattered clouds.13 mph50%29.92 "HgN/A
10:20 am45 °FPartly sunny.9 mph66%29.92 "HgN/A
9:20 am43 °FPassing clouds.7 mph81%29.92 "HgN/A
8:20 am37 °FPassing clouds.5 mph87%29.92 "HgN/A
7:20 am34 °FPassing clouds.6 mph93%29.92 "HgN/A
6:20 am32 °FIce fog.3 mph93%29.89 "Hg3 mi
5:20 am32 °FIce fog.3 mph93%29.89 "Hg3 mi
4:20 am30 °FPassing clouds.2 mph100%29.89 "HgN/A
3:20 am32 °FPassing clouds.2 mph93%29.89 "HgN/A
2:20 am34 °FPassing clouds.6 mph93%29.89 "HgN/A
1:20 am32 °FPassing clouds.1 mph93%29.92 "HgN/A
12:20 am32 °FPassing clouds.2 mph93%29.92 "HgN/A
11:20 pm
Wed, Apr 26
34 °FChilly.2 mph93%29.89 "HgN/A
10:20 pm36 °FPassing clouds.1 mph87%29.89 "HgN/A
9:20 pm37 °FPassing clouds.2 mph87%29.89 "HgN/A
8:20 pm41 °FPassing clouds.5 mph76%29.89 "HgN/A
7:20 pm43 °FPassing clouds.6 mph66%29.86 "HgN/A
6:20 pm45 °FScattered showers. Scattered clouds.15 mph66%29.86 "HgN/A
5:20 pm43 °FScattered showers. Partly sunny.5 mph76%29.86 "HgN/A
Weather by CustomWeather, © 2017

See weather overviewHow to use our weather pages